Tracking 17886 objects as of 9-December-2016
HD Live streaming from Space Station
objects crossing your sky now

COSMOS 2251 DEB

Track COSMOS 2251 DEB now!
10-day predictions


NORAD ID: 35451
Int'l Code: 1993-036AKV
Perigee: 567.6 km
Apogee: 720.4 km
Inclination: 73.9 °
Period: 97.5 minutes
Semi major axis: 7015 km
RCS: 0.0039 m2 (small)
Launch date: June 16, 1993
Source: Commonwealth of Independent States (former USSR) (CIS)
Launch site: PLESETSK MISSILE AND SPACE COMPLEX (PKMTR)

Note: This is SATELLITE DEBRIS
Your satellite tracking list
Your tracking list is empty





NASA's NSSDC Master Catalog

Two Line Element Set (TLE):
1 35451U 93036AKV 16343.05902272  .00000725  00000-0  96957-4 0  9997
2 35451  73.9456 211.6387 0108907 159.9856 200.5642 14.77608531410433
Source of the keplerian elements: AFSPC